Startseite
Über Mich
AHP4
Galerie
Sehschlangen
Tourenbuch
Bookmarks
Elektronik
Bewertung
Geschichten
[Tagesmessung] [Jahreswerte] [Information]

Messwerte vom 28.05.2022

Die letzten Messwerte von 08:43:49 Uhr:
KategorieMesswert
Temperatur [°C]11
Luftdruck [mBar]999
Sonneneinstrahlung206
Wind [km/h]1 aus Nordwest
Niederschlag [l/m²]0
rel.Luftfeucht.89.9%
CO2 [ppm]433

Diagramme
Messwerte vom 28.05.2022
Tagesaggregation
KategorieMinimumMaximumSchnittSumme
Temperatur [°C]6118.0629
Luftdruck [mBar]9981001998.8171
Sonneneinstrahlung21271.7029
Wind [km/h]14
rF [%]77.396.694.69
Niederschlag [l/m²]0
CO2 [ppm]421454435.6
Einordnung alsVegetationstag

Messungen an benachbarten Tagen: Zur Jahresaggregation 2022
Tabelle aller Messwerte
UhrzeitTemperatur [°C]Luftdruck [mBar]SonneWind [km/h]RichtungRegen [l/m²]rF [%]CO2 [ppm]
00:01:47 10 1000 0 1 S 0 79 426
00:04:45 10 1001 0 2 O 0 78.4 431
00:07:48 10 1000 0 4 W 0 78 433
00:10:47 10 1000 0 2 N 0 78 427
00:13:47 10 1000 0 4 SW 0 78 440
00:16:46 11 1000 0 4 SO 0 77.6 427
00:19:47 11 1000 0 2 SO 0 77.3 424
00:22:48 11 999 0 2 SO 0 77.4 427
00:25:47 10 1000 0 2 O 0 78.1 430
00:28:49 10 1000 0 7 SO 0 79 421
00:31:46 10 1000 0 6 W 0 80.4 424
00:34:49 10 1000 0 10 O 0 82.5 422
00:37:48 9 1001 0 4 NW 0 86.6 421
00:40:49 8 999 0 6 NW 0 90.8 432
00:43:47 8 1000 0 7 S 0 91.6 431
00:46:49 8 999 0 9 N 0 93.2 433
00:49:45 8 1000 0 4 S 0 93.8 434
00:52:48 8 1000 0 1 NW 0 94.2 430
00:55:48 8 1001 0 2 NW 0 94.9 424
00:58:47 8 1001 0 0 SO 0 95.3 436
01:01:45 8 1000 0 3 W 0 95.4 436
01:04:47 7 1001 0 1 SO 0 95.6 431
01:07:47 7 1000 0 0 SW 0 95.8 430
01:10:46 7 1000 0 0 N 0 96.3 428
01:13:47 7 1000 0 0 SW 0 96.6 428
01:16:47 7 1000 0 0 S 0 96.6 433
01:19:46 7 999 0 0 SO 0 96.6 443
01:22:48 7 1000 0 0 SO 0 96.6 439
01:25:48 7 1000 0 0 S 0 96.6 434
01:28:48 7 1000 0 0 SO 0 96.6 433
01:31:48 7 1000 0 0 SO 0 96.6 424
01:34:45 7 1001 0 0 S 0 96.6 431
01:37:46 7 999 0 3 S 0 96.6 432
01:40:46 7 999 0 2 SO 0 96.6 431
01:43:46 7 999 0 0 SO 0 96.6 431
01:46:47 7 999 0 0 SO 0 96.6 431
01:49:46 7 999 0 2 SW 0 96.6 442
01:52:47 8 999 0 1 SO 0 96.6 434
01:55:47 8 999 0 0 SO 0 96.6 433
01:58:45 8 999 0 0 W 0 96.6 433
02:01:48 8 999 0 0 SW 0 96.6 436
02:04:45 8 999 0 1 S 0 96.6 436
02:07:45 8 999 0 0 S 0 96.6 439
02:10:45 8 999 0 0 NO 0 96.6 436
02:13:46 8 999 0 4 SW 0 96.6 436
02:16:46 8 999 0 5 S 0 96.6 433
02:19:46 8 999 0 5 O 0 96.6 439
02:22:48 8 998 0 12 NO 0 96.6 439
02:25:48 8 999 0 3 SO 0 96.6 437
02:28:46 8 999 0 1 SO 0 96.6 436
02:31:47 8 999 0 4 O 0 96.6 425
02:34:48 8 999 0 0 NW 0 96.6 439
02:37:46 8 999 0 5 S 0 96.6 442
02:40:46 8 999 0 4 SW 0 96.6 442
02:43:45 8 999 0 3 O 0 96.6 436
02:46:49 8 999 0 2 W 0 96.6 435
02:49:45 8 999 0 2 SO 0 96.6 442
02:52:47 8 999 0 0 SW 0 96.6 444
02:55:46 8 998 0 1 S 0 96.6 447
02:58:48 8 998 0 1 S 0 96.6 454
03:01:45 8 999 0 1 S 0 96.6 448
03:04:45 8 999 0 5 SW 0 96.6 446
03:07:45 8 999 0 3 SO 0 96.6 442
03:10:47 8 998 0 6 SW 0 96.6 445
03:13:48 8 999 0 3 SW 0 96.6 448
03:16:47 8 999 0 3 NW 0 96.6 448
03:19:47 8 998 0 2 SW 0 96.6 445
03:22:45 8 999 0 3 N 0 96.6 439
03:25:45 8 998 0 3 W 0 96.6 436
03:28:48 7 999 0 5 SW 0 96.6 430
03:31:46 7 999 0 2 S 0 96.6 433
03:34:46 7 998 0 4 W 0 96.6 428
03:37:46 7 999 0 6 S 0 96.6 428
03:40:45 7 998 0 3 SW 0 96.6 433
03:43:46 7 998 0 3 W 0 96.6 445
03:46:49 7 999 0 10 NO 0 96.6 446
03:49:47 7 998 0 1 NW 0 96.6 437
03:52:46 7 998 0 0 O 0 96.6 436
03:55:46 7 999 0 0 O 0 96.6 439
03:58:47 6 998 0 2 S 0 96.6 436
04:01:48 6 998 0 2 NW 0 96.6 442
04:04:46 6 999 0 4 NO 0 96.6 442
04:07:48 6 999 0 2 S 0 96.6 442
04:10:43 6 998 0 0 0 96.6 442
04:13:45 6 998 0 1 S 0 96.6 447
04:16:47 6 998 0 0 S 0 96.6 442
04:19:48 6 998 0 1 SO 0 96.6 442
04:22:49 6 998 0 0 SW 0 96.6 433
04:25:47 6 998 0 0 S 0 96.6 431
04:28:46 6 999 0 0 S 0 96.6 439
04:31:49 6 998 0 0 SW 0 96.6 436
04:34:46 6 998 3 1 SW 0 96.6 430
04:37:47 6 999 5 1 S 0 96.6 434
04:40:45 6 998 7 0 S 0 96.6 435
04:43:48 6 998 10 0 S 0 96.6 437
04:46:47 6 998 14 1 S 0 96.6 436
04:49:46 6 998 19 1 W 0 96.6 433
04:52:48 6 999 26 2 SO 0 96.6 433
04:55:50 6 998 33 0 W 0 96.6 433
04:58:47 6 998 41 1 S 0 96.6 433
05:01:47 6 998 49 2 NW 0 96.6 439
05:04:46 6 998 58 1 S 0 96.6 436
05:07:46 6 998 66 3 SW 0 96.6 444
05:10:47 7 998 75 2 S 0 96.6 445
05:13:49 7 998 84 0 SO 0 96.6 445
05:16:47 7 998 92 1 SO 0 96.6 442
05:19:48 7 998 100 4 NW 0 96.6 436
05:22:48 7 998 108 1 NO 0 96.6 436
05:25:48 7 998 114 1 W 0 96.6 439
05:28:48 7 998 120 1 NO 0 96.6 439
05:31:49 7 998 125 2 NW 0 96.6 440
05:34:46 7 998 131 2 W 0 96.6 430
05:37:48 7 999 135 2 SW 0 96.6 434
05:40:48 7 998 139 3 SO 0 96.6 434
05:43:49 7 998 140 3 SO 0 96.6 433
05:46:46 7 998 139 7 S 0 96.6 433
05:49:48 7 998 140 2 S 0 96.6 436
05:52:49 7 998 143 0 NO 0 96.6 434
05:55:46 7 998 143 1 SW 0 96.6 433
05:58:49 7 998 143 3 NW 0 96.6 434
06:01:48 7 998 139 0 W 0 96.6 427
06:04:46 7 998 144 2 S 0 96.6 427
06:07:50 7 998 132 1 SW 0 96.6 428
06:10:48 7 998 148 0 O 0 96.6 430
06:13:47 7 998 141 1 O 0 96.6 436
06:16:48 8 998 109 2 NW 0 96.6 430
06:19:47 8 998 127 0 S 0 96.6 436
06:22:46 8 998 147 0 S 0 96.6 433
06:25:47 8 998 143 5 W 0 96.6 430
06:28:48 8 999 149 1 SW 0 96.6 430
06:31:51 8 998 152 2 S 0 96.6 431
06:34:48 8 999 167 1 S 0 96.6 442
06:37:47 8 999 169 1 SO 0 96.6 439
06:40:48 8 998 169 6 SW 0 96.6 431
06:43:48 8 998 173 2 W 0 96.6 427
06:46:46 8 999 184 4 W 0 96.6 433
06:49:47 8 999 191 3 SW 0 96.6 445
06:52:48 8 999 178 0 W 0 96.6 442
06:55:48 8 999 187 3 O 0 96.6 442
06:58:46 8 999 191 3 SO 0 96.6 433
07:01:48 8 998 193 3 SO 0 96.6 430
07:04:49 9 999 198 3 SW 0 96.6 436
07:07:49 9 998 200 4 O 0 96.6 436
07:10:47 9 999 193 2 NO 0 96.6 436
07:13:46 9 999 197 1 S 0 96.6 439
07:16:48 10 998 197 2 NO 0 96.6 445
07:19:47 10 999 203 2 N 0 96.6 442
07:22:49 10 998 186 3 NW 0 96.6 439
07:25:50 10 998 169 6 SO 0 96.6 442
07:28:49 10 998 182 4 SO 0 96.6 436
07:31:46 10 999 194 7 SW 0 96.6 431
07:34:46 9 998 186 9 W 0 96.6 435
07:37:50 9 999 204 3 SW 0 96.6 436
07:40:47 9 999 206 5 W 0 96.6 427
07:43:50 10 999 194 3 SO 0 96.6 421
07:46:47 10 998 197 8 W 0 96.6 424
07:49:48 10 999 190 5 SO 0 96.6 433
07:52:47 11 999 204 1 S 0 96.5 439
07:55:47 11 999 193 3 O 0 96 439
07:58:47 11 999 205 4 W 0 92.1 442
08:01:48 11 999 202 14 S 0 91.7 445
08:04:50 11 999 209 4 S 0 91.9 436
08:07:47 11 999 211 3 NO 0 92.1 436
08:10:48 11 999 199 8 SW 0 91.9 436
08:13:50 11 999 203 4 W 0 91.6 440
08:16:47 11 999 212 3 W 0 91.8 439
08:19:49 11 999 210 5 SW 0 92.2 440
08:22:48 11 999 204 8 S 0 91.9 442
08:25:50 11 999 212 6 NW 0 91.7 436
08:28:48 11 999 204 1 SO 0 92.1 433
08:31:48 11 998 210 2 O 0 91.3 431
08:34:48 11 999 210 4 SW 0 90.7 436
08:37:50 11 999 211 5 SO 0 90.6 445
08:40:50 11 1000 212 5 NW 0 90.6 440
08:43:49 11 999 206 1 NW 0 89.9 433

Letzte Änderung : 04-Jan-2022
Copyright Jens Köhler, Wolfsburg, Obere Dorfstraße 10d